AXM5196 WMKK-WBKS

Flight info

Callsign AXM5196
Flight time N/A
Altitude 35000
Route KIMAT3F KIMAT Y344 VPK M758 VJN A341 AKMAR AKMAR1F
Aircraft A320/M-SDE3FGHIRWY/LB1

Departure

Time N/A
Airport Kuala Lumpur International Airport (WMKK)

Arrival

Time 2026-05-07 20:19
Airport Sandakan Airport (WBKS)
Time Latitude Longitude Altitude Speed Heading
2026-05-07 18:35 3.51808 106.08084 34848 ft 452 kts 87°
2026-05-07 18:36 3.51967 106.11226 34848 ft 452 kts 87°
2026-05-07 18:36 3.52282 106.17518 34848 ft 452 kts 87°
2026-05-07 18:37 3.52602 106.23808 34848 ft 452 kts 87°
2026-05-07 18:37 3.52922 106.30097 34847 ft 452 kts 87°
2026-05-07 18:38 3.53242 106.36340 34848 ft 452 kts 87°
2026-05-07 18:38 3.53562 106.42639 34849 ft 452 kts 87°
2026-05-07 18:39 3.53890 106.48918 34846 ft 451 kts 87°
2026-05-07 18:39 3.54218 106.55193 34844 ft 451 kts 87°
2026-05-07 18:40 3.54543 106.61430 34842 ft 451 kts 87°
2026-05-07 18:40 3.54870 106.67700 34843 ft 451 kts 87°
2026-05-07 18:41 3.55184 106.73966 34842 ft 451 kts 87°
2026-05-07 18:41 3.55505 106.80228 34843 ft 450 kts 87°
2026-05-07 18:42 3.55832 106.86491 34841 ft 450 kts 87°
2026-05-07 18:42 3.56269 106.92740 34840 ft 450 kts 81°
2026-05-07 18:43 3.57761 106.98825 34830 ft 450 kts 76°
2026-05-07 18:43 3.59361 107.04883 34836 ft 450 kts 76°
2026-05-07 18:44 3.60947 107.10907 34841 ft 450 kts 76°
2026-05-07 18:44 3.62531 107.16973 34840 ft 450 kts 76°
2026-05-07 18:45 3.64122 107.23037 34836 ft 450 kts 76°
2026-05-07 18:45 3.65712 107.29101 34836 ft 450 kts 76°
2026-05-07 18:46 3.67300 107.35161 34839 ft 450 kts 76°
2026-05-07 18:46 3.68889 107.41218 34832 ft 450 kts 76°
2026-05-07 18:47 3.70475 107.47277 34834 ft 450 kts 76°
2026-05-07 18:47 3.72055 107.53336 34828 ft 450 kts 76°
2026-05-07 18:48 3.73628 107.59356 34832 ft 450 kts 76°
2026-05-07 18:48 3.75214 107.65416 34835 ft 450 kts 76°
2026-05-07 18:49 3.76806 107.71484 34829 ft 450 kts 76°
2026-05-07 18:49 3.78391 107.77546 34832 ft 450 kts 76°
2026-05-07 18:50 3.79970 107.83604 34828 ft 450 kts 76°
2026-05-07 18:50 3.81546 107.89631 34828 ft 450 kts 76°
2026-05-07 18:51 3.83133 107.95696 34832 ft 450 kts 76°
2026-05-07 18:51 3.84719 108.01760 34834 ft 450 kts 76°
2026-05-07 18:52 3.86297 108.07817 34833 ft 450 kts 76°
2026-05-07 18:52 3.87880 108.13897 34829 ft 450 kts 76°
2026-05-07 18:53 3.89454 108.19923 34836 ft 450 kts 76°
2026-05-07 18:53 3.91037 108.25978 34836 ft 450 kts 76°
2026-05-07 18:54 3.92624 108.32058 34834 ft 450 kts 76°
2026-05-07 18:54 3.94206 108.38140 34834 ft 450 kts 76°
2026-05-07 18:55 3.95792 108.44216 34834 ft 450 kts 76°
2026-05-07 18:55 3.97366 108.50251 34825 ft 451 kts 76°
2026-05-07 18:56 3.98946 108.56322 34832 ft 451 kts 76°
2026-05-07 18:56 4.00523 108.62394 34825 ft 451 kts 76°
2026-05-07 18:57 4.02106 108.68480 34829 ft 451 kts 76°
2026-05-07 18:57 4.03689 108.74558 34827 ft 451 kts 76°
2026-05-07 18:58 4.05283 108.80630 34829 ft 451 kts 76°
2026-05-07 18:58 4.06885 108.86707 34827 ft 451 kts 76°
2026-05-07 18:59 4.08476 108.92779 34836 ft 451 kts 76°
2026-05-07 18:59 4.10067 108.98862 34825 ft 451 kts 76°
2026-05-07 19:00 4.11647 109.04920 34831 ft 451 kts 76°
2026-05-07 19:00 4.13234 109.11004 34830 ft 451 kts 76°
2026-05-07 19:01 4.14820 109.17054 34836 ft 451 kts 76°
2026-05-07 19:01 4.16414 109.23132 34831 ft 451 kts 76°
2026-05-07 19:02 4.18013 109.29232 34830 ft 451 kts 76°
2026-05-07 19:02 4.19594 109.35276 34827 ft 451 kts 76°
2026-05-07 19:03 4.21178 109.41360 34829 ft 451 kts 76°
2026-05-07 19:03 4.22765 109.47447 34836 ft 451 kts 76°
2026-05-07 19:04 4.24353 109.53537 34834 ft 451 kts 76°
2026-05-07 19:04 4.25946 109.59631 34833 ft 451 kts 76°
2026-05-07 19:05 4.27511 109.65685 34834 ft 451 kts 76°
2026-05-07 19:05 4.29073 109.71781 34826 ft 451 kts 76°
2026-05-07 19:06 4.30632 109.77889 34834 ft 451 kts 75°
2026-05-07 19:06 4.32982 109.86985 34833 ft 451 kts 76°
2026-05-07 19:07 4.34544 109.93073 34834 ft 451 kts 76°
2026-05-07 19:07 4.36099 109.99160 34839 ft 451 kts 76°
2026-05-07 19:08 4.37657 110.05250 34840 ft 451 kts 76°
2026-05-07 19:08 4.39225 110.11338 34837 ft 451 kts 76°
2026-05-07 19:09 4.40790 110.17424 34827 ft 451 kts 76°
2026-05-07 19:09 4.42345 110.23520 34827 ft 451 kts 76°
2026-05-07 19:10 4.43903 110.29606 34835 ft 451 kts 76°
2026-05-07 19:10 4.45457 110.35657 34833 ft 451 kts 76°
2026-05-07 19:11 4.47014 110.41749 34840 ft 451 kts 76°
2026-05-07 19:11 4.48568 110.47836 34835 ft 451 kts 76°
2026-05-07 19:12 4.50120 110.53925 34830 ft 451 kts 76°
2026-05-07 19:12 4.51680 110.60014 34839 ft 451 kts 76°
2026-05-07 19:13 4.53237 110.66112 34832 ft 451 kts 76°
2026-05-07 19:13 4.54777 110.72167 34833 ft 451 kts 76°
2026-05-07 19:14 4.56335 110.78272 34837 ft 451 kts 76°
2026-05-07 19:14 4.57903 110.84368 34834 ft 451 kts 76°
2026-05-07 19:15 4.59462 110.90469 34831 ft 452 kts 76°
2026-05-07 19:15 4.61019 110.96580 34831 ft 452 kts 76°
2026-05-07 19:16 4.62551 111.02642 34838 ft 452 kts 76°
2026-05-07 19:16 4.64104 111.08747 34841 ft 452 kts 76°
2026-05-07 19:17 4.65401 111.13824 34840 ft 451 kts 76°
2026-05-07 19:17 4.66953 111.19926 34838 ft 451 kts 76°
2026-05-07 19:18 4.68508 111.26030 34838 ft 452 kts 76°
2026-05-07 19:18 4.70063 111.32132 34838 ft 452 kts 76°
2026-05-07 19:19 4.71621 111.38236 34839 ft 452 kts 76°
2026-05-07 19:19 4.73176 111.44342 34838 ft 452 kts 76°
2026-05-07 19:20 4.74715 111.50408 34840 ft 452 kts 76°
2026-05-07 19:20 4.76264 111.56518 34840 ft 452 kts 76°
2026-05-07 19:21 4.77816 111.62614 34840 ft 451 kts 76°
2026-05-07 19:21 4.79360 111.68718 34839 ft 451 kts 76°
2026-05-07 19:22 4.80903 111.74818 34838 ft 451 kts 76°
2026-05-07 19:22 4.82450 111.80913 34835 ft 451 kts 76°
2026-05-07 19:23 4.84005 111.87017 34832 ft 452 kts 76°
2026-05-07 19:23 4.85587 111.93116 34831 ft 452 kts 75°
2026-05-07 19:24 4.87163 111.99176 34822 ft 452 kts 75°
2026-05-07 19:24 4.88752 112.05278 34823 ft 452 kts 75°
2026-05-07 19:25 4.90333 112.11382 34836 ft 452 kts 75°
2026-05-07 19:25 4.91915 112.17496 34828 ft 453 kts 75°
2026-05-07 19:26 4.93501 112.23611 34827 ft 453 kts 75°
2026-05-07 19:26 4.95081 112.29731 34835 ft 453 kts 75°
2026-05-07 19:27 4.96662 112.35845 34836 ft 453 kts 75°
2026-05-07 19:27 4.98238 112.41967 34839 ft 453 kts 75°
2026-05-07 19:28 4.99806 112.48043 34838 ft 453 kts 75°
2026-05-07 19:28 5.01390 112.54159 34835 ft 453 kts 75°
2026-05-07 19:29 5.02976 112.60274 34833 ft 453 kts 75°
2026-05-07 19:29 5.04564 112.66383 34832 ft 453 kts 75°
2026-05-07 19:30 5.06142 112.72494 34829 ft 452 kts 75°
2026-05-07 19:30 5.07701 112.78562 34823 ft 452 kts 75°
2026-05-07 19:31 5.09282 112.84713 34820 ft 453 kts 75°
2026-05-07 19:31 5.10854 112.90789 34823 ft 453 kts 75°
2026-05-07 19:32 5.12432 112.96909 34820 ft 453 kts 75°
2026-05-07 19:32 5.14006 113.03035 34827 ft 454 kts 75°
2026-05-07 19:33 5.15583 113.09161 34830 ft 454 kts 75°
2026-05-07 19:33 5.17154 113.15290 34819 ft 454 kts 75°
2026-05-07 19:34 5.18737 113.21433 34827 ft 455 kts 75°
2026-05-07 19:34 5.20319 113.27577 34828 ft 455 kts 75°
2026-05-07 19:35 5.21892 113.33726 34831 ft 455 kts 75°
2026-05-07 19:35 5.23470 113.39874 34833 ft 455 kts 75°
2026-05-07 19:36 5.25041 113.45983 34833 ft 455 kts 75°
2026-05-07 19:36 5.26623 113.52135 34833 ft 455 kts 75°
2026-05-07 19:37 5.28206 113.58288 34832 ft 455 kts 75°
2026-05-07 19:37 5.29785 113.64444 34832 ft 455 kts 75°
2026-05-07 19:38 5.31373 113.70602 34829 ft 455 kts 75°
2026-05-07 19:38 5.32947 113.76754 34829 ft 456 kts 75°
2026-05-07 19:39 5.34518 113.82915 34821 ft 456 kts 75°
2026-05-07 19:39 5.36101 113.89079 34819 ft 456 kts 75°
2026-05-07 19:40 5.37682 113.95249 34815 ft 456 kts 75°
2026-05-07 19:40 5.39255 114.01421 34819 ft 457 kts 75°
2026-05-07 19:41 5.40832 114.07589 34821 ft 457 kts 75°
2026-05-07 19:41 5.42400 114.13727 34819 ft 457 kts 75°
2026-05-07 19:42 5.43973 114.19910 34814 ft 457 kts 75°
2026-05-07 19:42 5.45548 114.26094 34816 ft 458 kts 75°
2026-05-07 19:43 5.47119 114.32287 34818 ft 458 kts 75°
2026-05-07 19:43 5.48688 114.38479 34823 ft 458 kts 75°
2026-05-07 19:44 5.50264 114.44675 34823 ft 459 kts 75°
2026-05-07 19:44 5.51843 114.50882 34823 ft 459 kts 75°
2026-05-07 19:45 5.53416 114.57100 34819 ft 459 kts 75°
2026-05-07 19:45 5.54984 114.63323 34829 ft 459 kts 75°
2026-05-07 19:46 5.56552 114.69503 34831 ft 459 kts 75°
2026-05-07 19:46 5.58127 114.75712 34833 ft 459 kts 75°
2026-05-07 19:47 5.59698 114.81915 34825 ft 458 kts 75°
2026-05-07 19:47 5.61269 114.88111 34826 ft 458 kts 75°
2026-05-07 19:48 5.62833 114.94309 34828 ft 458 kts 75°
2026-05-07 19:48 5.64397 115.00507 34827 ft 458 kts 75°
2026-05-07 19:49 5.65965 115.06706 34815 ft 458 kts 75°
2026-05-07 19:49 5.67536 115.12915 34816 ft 459 kts 75°
2026-05-07 19:50 5.69097 115.19123 34810 ft 459 kts 75°
2026-05-07 19:50 5.70642 115.25346 34816 ft 459 kts 75°
2026-05-07 19:51 5.72174 115.31537 34815 ft 459 kts 75°
2026-05-07 19:51 5.73709 115.37761 34812 ft 459 kts 75°
2026-05-07 19:52 5.75244 115.43988 34802 ft 459 kts 75°
2026-05-07 19:52 5.76786 115.50197 34803 ft 459 kts 75°
2026-05-07 19:53 5.78331 115.56424 34808 ft 459 kts 75°
2026-05-07 19:53 5.79872 115.62657 34804 ft 459 kts 75°
2026-05-07 19:54 5.81405 115.68883 34806 ft 459 kts 75°
2026-05-07 19:54 5.82942 115.75106 34809 ft 459 kts 75°
2026-05-07 19:55 5.84483 115.81332 34815 ft 459 kts 75°
2026-05-07 19:55 5.86008 115.87501 34819 ft 459 kts 75°
2026-05-07 19:56 5.87552 115.93734 34823 ft 459 kts 75°
2026-05-07 19:56 5.89083 115.99951 34827 ft 458 kts 75°
2026-05-07 19:57 5.89935 116.06281 34823 ft 458 kts 89°
2026-05-07 19:57 5.89920 116.12675 34820 ft 458 kts 89°
2026-05-07 19:58 5.89920 116.19027 34601 ft 458 kts 89°
2026-05-07 19:58 5.89920 116.22227 33915 ft 461 kts 89°
2026-05-07 19:58 5.89920 116.25471 32898 ft 467 kts 89°
2026-05-07 19:59 5.89917 116.28709 32404 ft 461 kts 89°
2026-05-07 19:59 5.89915 116.31913 31798 ft 457 kts 89°
2026-05-07 19:59 5.89913 116.35100 31203 ft 454 kts 89°
2026-05-07 19:59 5.89911 116.38259 30632 ft 451 kts 89°
2026-05-07 20:00 5.89910 116.41399 30052 ft 448 kts 89°
2026-05-07 20:00 5.89906 116.44520 29415 ft 446 kts 89°
2026-05-07 20:00 5.89903 116.47613 28855 ft 441 kts 89°
2026-05-07 20:00 5.89900 116.50677 28300 ft 436 kts 89°
2026-05-07 20:01 5.89897 116.53716 27745 ft 432 kts 89°
2026-05-07 20:01 5.89896 116.56722 27201 ft 428 kts 89°
2026-05-07 20:01 5.89896 116.59688 26911 ft 420 kts 89°
2026-05-07 20:01 5.89894 116.62599 26848 ft 415 kts 89°
2026-05-07 20:02 5.89893 116.65497 26866 ft 415 kts 89°
2026-05-07 20:02 5.89891 116.68398 26869 ft 415 kts 89°
2026-05-07 20:02 5.89889 116.71296 26860 ft 415 kts 89°
2026-05-07 20:02 5.89909 116.74191 26864 ft 415 kts 88°
2026-05-07 20:03 5.89948 116.77093 26858 ft 415 kts 88°
2026-05-07 20:03 5.89996 116.79989 26858 ft 415 kts 88°
2026-05-07 20:03 5.90046 116.82849 26859 ft 415 kts 88°
2026-05-07 20:03 5.90095 116.85783 26859 ft 415 kts 88°
2026-05-07 20:04 5.90139 116.88642 26847 ft 415 kts 88°
2026-05-07 20:04 5.90180 116.91540 26851 ft 415 kts 88°
2026-05-07 20:04 5.90218 116.94434 26410 ft 416 kts 88°
2026-05-07 20:04 5.90258 116.97374 25455 ft 426 kts 88°
2026-05-07 20:05 5.90299 117.00357 24783 ft 426 kts 88°
2026-05-07 20:05 5.90338 117.03320 24227 ft 423 kts 88°
2026-05-07 20:05 5.90373 117.06269 23707 ft 420 kts 88°
2026-05-07 20:05 5.90390 117.09190 23172 ft 417 kts 89°
2026-05-07 20:06 5.90389 117.12089 22598 ft 413 kts 89°
2026-05-07 20:06 5.90382 117.14965 22079 ft 409 kts 89°
2026-05-07 20:06 5.90375 117.17811 21587 ft 406 kts 89°
2026-05-07 20:06 5.90371 117.20592 20876 ft 398 kts 89°
2026-05-07 20:07 5.90371 117.23315 20032 ft 393 kts 89°
2026-05-07 20:07 5.90374 117.26037 19199 ft 387 kts 89°
2026-05-07 20:07 5.90375 117.28721 18412 ft 382 kts 89°
2026-05-07 20:07 5.90378 117.31368 17553 ft 377 kts 89°
2026-05-07 20:08 5.90382 117.33985 16697 ft 371 kts 89°
2026-05-07 20:08 5.90383 117.36569 15848 ft 366 kts 89°
2026-05-07 20:08 5.90383 117.39106 15153 ft 358 kts 89°
2026-05-07 20:08 5.90384 117.41585 14349 ft 354 kts 89°
2026-05-07 20:09 5.90387 117.44043 13509 ft 352 kts 89°
2026-05-07 20:09 5.90389 117.46489 12629 ft 348 kts 89°
2026-05-07 20:09 5.90387 117.48907 11824 ft 343 kts 89°
2026-05-07 20:10 5.90375 117.52676 11465 ft 307 kts 89°
2026-05-07 20:10 5.90368 117.54792 10973 ft 299 kts 89°
2026-05-07 20:10 5.90363 117.56871 10388 ft 295 kts 89°
2026-05-07 20:10 5.90358 117.58924 9793 ft 293 kts 89°
2026-05-07 20:11 5.90351 117.61612 8933 ft 289 kts 89°
2026-05-07 20:11 5.90346 117.63626 8270 ft 287 kts 89°
2026-05-07 20:11 5.90264 117.65620 7612 ft 286 kts 98°
2026-05-07 20:11 5.89952 117.66927 7177 ft 285 kts 106°
2026-05-07 20:12 5.89398 117.68635 6582 ft 284 kts 106°
2026-05-07 20:12 5.88791 117.70520 5982 ft 285 kts 106°
2026-05-07 20:12 5.88193 117.72379 5530 ft 284 kts 107°
2026-05-07 20:12 5.87582 117.74283 5096 ft 284 kts 106°
2026-05-07 20:13 5.86992 117.76124 5002 ft 269 kts 106°
2026-05-07 20:13 5.86440 117.77853 5004 ft 251 kts 106°
2026-05-07 20:13 5.86010 117.79512 4780 ft 244 kts 94°
2026-05-07 20:13 5.86069 117.81196 4454 ft 241 kts 79°
2026-05-07 20:14 5.86343 117.82850 4144 ft 239 kts 79°
2026-05-07 20:14 5.86609 117.84469 3831 ft 230 kts 79°
2026-05-07 20:14 5.86863 117.86020 3550 ft 220 kts 79°
2026-05-07 20:14 5.87106 117.87505 3276 ft 211 kts 79°
2026-05-07 20:15 5.87337 117.88917 3041 ft 199 kts 79°
2026-05-07 20:15 5.87556 117.90249 2764 ft 188 kts 79°
2026-05-07 20:15 5.87764 117.91518 2530 ft 182 kts 79°
2026-05-07 20:15 5.87967 117.92758 2308 ft 177 kts 79°
2026-05-07 20:16 5.88167 117.93964 2099 ft 173 kts 78°
2026-05-07 20:16 5.88401 117.95133 1890 ft 169 kts 77°
2026-05-07 20:16 5.88621 117.96285 1703 ft 167 kts 80°
2026-05-07 20:16 5.88786 117.97437 1587 ft 163 kts 80°
2026-05-07 20:17 5.88932 117.98518 1425 ft 150 kts 82°
2026-05-07 20:17 5.89076 117.99540 1219 ft 148 kts 79°
2026-05-07 20:17 5.89250 118.00554 942 ft 146 kts 79°
2026-05-07 20:17 5.89424 118.01558 763 ft 146 kts 80°
2026-05-07 20:18 5.89583 118.02570 560 ft 147 kts 81°
2026-05-07 20:18 5.89747 118.03583 364 ft 147 kts 81°
2026-05-07 20:18 5.89912 118.04598 168 ft 147 kts 81°
2026-05-07 20:18 5.90071 118.05598 57 ft 135 kts 81°
2026-05-07 20:19 5.90177 118.06227 51 ft 52 kts 80°
2026-05-07 20:19 5.90230 118.06566 52 ft 47 kts 81°
2026-05-07 20:19 5.90265 118.06828 54 ft 27 kts 102°
2026-05-07 20:19 5.90275 118.06894 54 ft 2 kts 316°
2026-05-07 20:20 5.90279 118.06847 51 ft 11 kts 261°
2026-05-07 20:20 5.90260 118.06747 53 ft 18 kts 260°
2026-05-07 20:20 5.90235 118.06595 52 ft 25 kts 260°
2026-05-07 20:20 5.90203 118.06401 53 ft 31 kts 261°
2026-05-07 20:21 5.90172 118.06205 52 ft 24 kts 261°
2026-05-07 20:21 5.90140 118.06098 49 ft 10 kts 231°
2026-05-07 20:21 5.90059 118.06107 53 ft 15 kts 170°
2026-05-07 20:21 5.89950 118.06125 52 ft 19 kts 171°
2026-05-07 20:22 5.89866 118.06132 55 ft 9 kts 187°
2026-05-07 20:22 5.89820 118.06134 55 ft 8 kts 171°
2026-05-07 20:22 5.89798 118.06138 51 ft 0 kts 171°